iso_date,epoch_date,Year,Hour,Min,DOY,POS_DOY,Lat,Lon,BP,Ts,Ta,has_bp,has_ts,has_ta,BuoyID,Buoy_Type,Buoy_Owner,Logistics,Hemisphere
2014-03-02T22:00:28Z,1393797629,2014,22,0,61.917,61.917,62.46698,-114.41595,995.45,-999.00,-999.0,yes,no,no,169312003533399,WB,BAS,APL_Sachs_Harbor,North
2014-03-02T22:59:31Z,1393801171,2014,23,0,61.958,61.958,62.46697,-114.41588,996.65,-999.00,-999.0,yes,no,no,169312003533399,WB,BAS,APL_Sachs_Harbor,North
2014-03-03T00:00:00Z,1393804800,2014,0,0,62.0,62.0,62.46697,-114.41583,991.59,-999.00,-999.0,yes,no,no,169312003533399,WB,BAS,APL_Sachs_Harbor,North
2014-03-03T01:00:28Z,1393808429,2014,1,0,62.042,62.042,62.46698,-114.41587,991.58,-999.00,-999.0,yes,no,no,169312003533399,WB,BAS,APL_Sachs_Harbor,North
2014-03-03T01:59:31Z,1393811971,2014,2,0,62.083,62.083,62.46697,-114.41585,989.05,-999.00,-999.0,yes,no,no,169312003533399,WB,BAS,APL_Sachs_Harbor,North
2014-03-03T03:00:00Z,1393815600,2014,3,0,62.125,62.125,62.467,-114.41598,990.25,-999.00,-999.0,yes,no,no,169312003533399,WB,BAS,APL_Sachs_Harbor,North
2014-03-03T04:00:28Z,1393819229,2014,4,0,62.167,62.167,62.46698,-114.41583,987.72,-999.00,-999.0,yes,no,no,169312003533399,WB,BAS,APL_Sachs_Harbor,North
2014-03-03T04:59:31Z,1393822771,2014,5,0,62.208,62.208,62.46698,-114.4159,985.18,-999.00,-999.0,yes,no,no,169312003533399,WB,BAS,APL_Sachs_Harbor,North
2014-03-03T06:00:00Z,1393826400,2014,6,0,62.25,62.25,62.46695,-114.41588,986.52,-999.00,-999.0,yes,no,no,169312003533399,WB,BAS,APL_Sachs_Harbor,North
2014-03-03T07:00:28Z,1393830029,2014,7,0,62.292,62.292,62.46702,-114.41598,986.52,-999.00,-999.0,yes,no,no,169312003533399,WB,BAS,APL_Sachs_Harbor,North
2014-03-03T07:59:31Z,1393833571,2014,8,0,62.333,62.333,62.46697,-114.41592,986.52,-999.00,-999.0,yes,no,no,169312003533399,WB,BAS,APL_Sachs_Harbor,North
2014-03-03T09:00:00Z,1393837200,2014,9,0,62.375,62.375,62.46695,-114.41592,986.52,-999.00,-999.0,yes,no,no,169312003533399,WB,BAS,APL_Sachs_Harbor,North
2014-03-03T10:00:28Z,1393840829,2014,10,0,62.417,62.417,62.46698,-114.4159,985.18,-999.00,-999.0,yes,no,no,169312003533399,WB,BAS,APL_Sachs_Harbor,North
2014-03-03T10:59:31Z,1393844371,2014,11,0,62.458,62.458,62.46698,-114.41593,985.18,-999.00,-999.0,yes,no,no,169312003533399,WB,BAS,APL_Sachs_Harbor,North
2014-03-03T12:00:00Z,1393848000,2014,12,0,62.5,62.5,62.46713,-114.41597,985.18,-999.00,-999.0,yes,no,no,169312003533399,WB,BAS,APL_Sachs_Harbor,North
2014-03-03T13:00:28Z,1393851629,2014,13,0,62.542,62.542,62.46698,-114.4159,983.98,-999.00,-999.0,yes,no,no,169312003533399,WB,BAS,APL_Sachs_Harbor,North
2014-03-03T13:59:31Z,1393855171,2014,14,0,62.583,62.583,62.46698,-114.41588,981.32,-999.00,-999.0,yes,no,no,169312003533399,WB,BAS,APL_Sachs_Harbor,North
2014-03-03T15:00:00Z,1393858800,2014,15,0,62.625,62.625,62.46697,-114.41587,985.18,-999.00,-999.0,yes,no,no,169312003533399,WB,BAS,APL_Sachs_Harbor,North
2014-03-03T16:00:28Z,1393862429,2014,16,0,62.667,62.667,62.46697,-114.4159,981.33,-999.00,-999.0,yes,no,no,169312003533399,WB,BAS,APL_Sachs_Harbor,North
2014-03-03T16:59:31Z,1393865971,2014,17,0,62.708,62.708,62.46697,-114.4159,978.8,-999.00,-999.0,yes,no,no,169312003533399,WB,BAS,APL_Sachs_Harbor,North
2014-03-03T18:00:00Z,1393869600,2014,18,0,62.75,62.75,62.46715,-114.41645,978.8,-999.00,-999.0,yes,no,no,169312003533399,WB,BAS,APL_Sachs_Harbor,North
2014-03-03T19:01:55Z,1393873315,2014,19,2,62.793,62.793,62.46713,-114.4178,981.32,-999.00,-999.0,yes,no,no,169312003533399,WB,BAS,APL_Sachs_Harbor,North
2014-03-03T20:02:24Z,1393876944,2014,20,2,62.835,62.835,62.46713,-114.4178,985.18,-999.00,-999.0,yes,no,no,169312003533399,WB,BAS,APL_Sachs_Harbor,North
2014-03-03T21:01:26Z,1393880486,2014,21,2,62.876,62.876,62.46713,-114.4178,985.18,-999.00,-999.0,yes,no,no,169312003533399,WB,BAS,APL_Sachs_Harbor,North
2014-03-05T21:31:40Z,1394055101,2014,21,32,64.897,64.897,71.99165,-125.24233,989.06,-999.00,-999.0,yes,no,no,169312003533399,WB,BAS,APL_Sachs_Harbor,North
2014-03-05T22:32:09Z,1394058730,2014,22,32,64.939,64.939,71.99167,-125.24228,987.73,-999.00,-999.0,yes,no,no,169312003533399,WB,BAS,APL_Sachs_Harbor,North
2014-03-05T23:32:38Z,1394062358,2014,23,32,64.981,64.981,71.99185,-125.24302,986.53,-999.00,-999.0,yes,no,no,169312003533399,WB,BAS,APL_Sachs_Harbor,North
2014-03-06T00:31:40Z,1394065901,2014,0,32,65.022,65.022,71.99165,-125.2423,985.18,-999.00,-999.0,yes,no,no,169312003533399,WB,BAS,APL_Sachs_Harbor,North
2014-03-06T01:32:09Z,1394069530,2014,1,32,65.064,65.064,71.99165,-125.2423,986.52,-999.00,-999.0,yes,no,no,169312003533399,WB,BAS,APL_Sachs_Harbor,North
2014-03-06T02:32:38Z,1394073158,2014,2,32,65.106,65.106,71.99163,-125.2423,985.18,-999.00,-999.0,yes,no,no,169312003533399,WB,BAS,APL_Sachs_Harbor,North
2014-03-06T03:31:40Z,1394076701,2014,3,32,65.147,65.147,71.99163,-125.24237,985.18,-999.00,-999.0,yes,no,no,169312003533399,WB,BAS,APL_Sachs_Harbor,North
2014-03-06T04:32:09Z,1394080330,2014,4,32,65.189,65.189,71.99162,-125.24232,983.98,-999.00,-999.0,yes,no,no,169312003533399,WB,BAS,APL_Sachs_Harbor,North
2014-03-06T05:32:38Z,1394083958,2014,5,32,65.231,65.231,71.99163,-125.24228,981.32,-999.00,-999.0,yes,no,no,169312003533399,WB,BAS,APL_Sachs_Harbor,North
2014-03-06T06:31:40Z,1394087501,2014,6,32,65.272,65.272,71.99163,-125.24232,989.05,-999.00,-999.0,yes,no,no,169312003533399,WB,BAS,APL_Sachs_Harbor,North
2014-03-06T07:32:09Z,1394091130,2014,7,32,65.314,65.314,71.99162,-125.24227,981.31,-999.00,-999.0,yes,no,no,169312003533399,WB,BAS,APL_Sachs_Harbor,North
2014-03-06T08:32:38Z,1394094758,2014,8,32,65.356,65.356,71.99162,-125.24228,980.11,-999.00,-999.0,yes,no,no,169312003533399,WB,BAS,APL_Sachs_Harbor,North
2014-03-06T09:31:40Z,1394098301,2014,9,32,65.397,65.397,71.99163,-125.24228,978.78,-999.00,-999.0,yes,no,no,169312003533399,WB,BAS,APL_Sachs_Harbor,North
2014-03-06T10:32:09Z,1394101930,2014,10,32,65.439,65.439,71.99162,-125.24227,981.31,-999.00,-999.0,yes,no,no,169312003533399,WB,BAS,APL_Sachs_Harbor,North
2014-03-06T11:32:38Z,1394105558,2014,11,32,65.481,65.481,71.99162,-125.24228,980.11,-999.00,-999.0,yes,no,no,169312003533399,WB,BAS,APL_Sachs_Harbor,North
2014-03-06T12:31:40Z,1394109101,2014,12,32,65.522,65.522,71.99163,-125.24232,980.11,-999.00,-999.0,yes,no,no,169312003533399,WB,BAS,APL_Sachs_Harbor,North
2014-03-06T13:32:09Z,1394112730,2014,13,32,65.564,65.564,71.99162,-125.24225,978.78,-999.00,-999.0,yes,no,no,169312003533399,WB,BAS,APL_Sachs_Harbor,North
2014-03-13T16:00:28Z,1394726429,2014,16,0,72.667,72.667,72.02948,-125.29303,922.66,-999.00,-999.0,yes,no,no,169312003533399,WB,BAS,APL_Sachs_Harbor,North
2014-03-13T16:59:31Z,1394729971,2014,17,0,72.708,72.708,73.02487,-132.3886,921.46,-999.00,-999.0,yes,no,no,169312003533399,WB,BAS,APL_Sachs_Harbor,North
2014-03-14T22:59:31Z,1394837971,2014,23,0,73.958,73.958,73.45252,-135.62042,987.73,-999.00,-999.0,yes,no,no,169312003533399,WB,BAS,APL_Sachs_Harbor,North
2014-03-15T00:00:00Z,1394841600,2014,0,0,74.0,74.0,73.4541,-135.62635,987.72,-999.00,-999.0,yes,no,no,169312003533399,WB,BAS,APL_Sachs_Harbor,North
2014-03-15T01:00:28Z,1394845229,2014,1,0,74.042,74.042,73.45665,-135.63465,985.19,-999.00,-999.0,yes,no,no,169312003533399,WB,BAS,APL_Sachs_Harbor,North
2014-03-15T01:59:31Z,1394848771,2014,2,0,74.083,74.083,73.45787,-135.63847,986.52,-999.00,-999.0,yes,no,no,169312003533399,WB,BAS,APL_Sachs_Harbor,North
2014-03-15T03:00:00Z,1394852400,2014,3,0,74.125,74.125,73.46147,-135.65015,981.32,-999.00,-999.0,yes,no,no,169312003533399,WB,BAS,APL_Sachs_Harbor,North
2014-03-15T04:00:28Z,1394856029,2014,4,0,74.167,74.167,73.46333,-135.6549,989.05,-999.00,-999.0,yes,no,no,169312003533399,WB,BAS,APL_Sachs_Harbor,North
2014-03-15T04:59:31Z,1394859571,2014,5,0,74.208,74.208,73.46643,-135.664,986.52,-999.00,-999.0,yes,no,no,169312003533399,WB,BAS,APL_Sachs_Harbor,North
2014-03-15T06:00:00Z,1394863200,2014,6,0,74.25,74.25,73.46813,-135.66983,983.98,-999.00,-999.0,yes,no,no,169312003533399,WB,BAS,APL_Sachs_Harbor,North
2014-03-15T07:00:28Z,1394866829,2014,7,0,74.292,74.292,73.46965,-135.67412,983.98,-999.00,-999.0,yes,no,no,169312003533399,WB,BAS,APL_Sachs_Harbor,North
2014-03-15T07:59:31Z,1394870371,2014,8,0,74.333,74.333,73.47213,-135.68195,985.18,-999.00,-999.0,yes,no,no,169312003533399,WB,BAS,APL_Sachs_Harbor,North
2014-03-15T09:00:00Z,1394874000,2014,9,0,74.375,74.375,73.4743,-135.68883,985.18,-999.00,-999.0,yes,no,no,169312003533399,WB,BAS,APL_Sachs_Harbor,North
2014-03-15T10:00:28Z,1394877629,2014,10,0,74.417,74.417,73.47603,-135.69398,985.18,-999.00,-999.0,yes,no,no,169312003533399,WB,BAS,APL_Sachs_Harbor,North
2014-03-15T10:59:31Z,1394881171,2014,11,0,74.458,74.458,73.47783,-135.7013,985.18,-999.00,-999.0,yes,no,no,169312003533399,WB,BAS,APL_Sachs_Harbor,North
2014-03-15T12:00:00Z,1394884800,2014,12,0,74.5,74.5,73.47973,-135.70867,983.98,-999.00,-999.0,yes,no,no,169312003533399,WB,BAS,APL_Sachs_Harbor,North
2014-03-15T13:00:28Z,1394888429,2014,13,0,74.542,74.542,73.48152,-135.71748,983.98,-999.00,-999.0,yes,no,no,169312003533399,WB,BAS,APL_Sachs_Harbor,North
2014-03-15T13:59:31Z,1394891971,2014,14,0,74.583,74.583,73.48387,-135.72563,986.52,-999.00,-999.0,yes,no,no,169312003533399,WB,BAS,APL_Sachs_Harbor,North
2014-03-15T15:00:00Z,1394895600,2014,15,0,74.625,74.625,73.48565,-135.7323,983.98,-999.00,-999.0,yes,no,no,169312003533399,WB,BAS,APL_Sachs_Harbor,North
2014-03-15T16:00:28Z,1394899229,2014,16,0,74.667,74.667,73.48847,-135.74205,982.65,-999.00,-999.0,yes,no,no,169312003533399,WB,BAS,APL_Sachs_Harbor,North
2014-03-15T16:59:31Z,1394902771,2014,17,0,74.708,74.708,73.49012,-135.74773,983.98,-999.00,-999.0,yes,no,no,169312003533399,WB,BAS,APL_Sachs_Harbor,North
2014-03-15T18:00:00Z,1394906400,2014,18,0,74.75,74.75,73.49307,-135.7562,984.0,-999.00,-999.0,yes,no,no,169312003533399,WB,BAS,APL_Sachs_Harbor,North
2014-03-15T19:00:28Z,1394910029,2014,19,0,74.792,74.792,73.49432,-135.76095,983.99,-999.00,-999.0,yes,no,no,169312003533399,WB,BAS,APL_Sachs_Harbor,North
2014-03-15T19:59:31Z,1394913571,2014,20,0,74.833,74.833,73.49655,-135.76893,986.52,-999.00,-999.0,yes,no,no,169312003533399,WB,BAS,APL_Sachs_Harbor,North
2014-03-15T21:00:00Z,1394917200,2014,21,0,74.875,74.875,73.49877,-135.7781,987.72,-999.00,-999.0,yes,no,no,169312003533399,WB,BAS,APL_Sachs_Harbor,North
2014-03-15T22:00:28Z,1394920829,2014,22,0,74.917,74.917,73.49998,-135.78495,987.72,-999.00,-999.0,yes,no,no,169312003533399,WB,BAS,APL_Sachs_Harbor,North
2014-03-15T22:59:31Z,1394924371,2014,23,0,74.958,74.958,73.50193,-135.79488,989.05,-999.00,-999.0,yes,no,no,169312003533399,WB,BAS,APL_Sachs_Harbor,North
2014-03-16T00:00:00Z,1394928000,2014,0,0,75.0,75.0,73.50505,-135.80962,990.25,-999.00,-999.0,yes,no,no,169312003533399,WB,BAS,APL_Sachs_Harbor,North
2014-03-16T01:59:31Z,1394935171,2014,2,0,75.083,75.083,73.50798,-135.82545,991.59,-999.00,-999.0,yes,no,no,169312003533399,WB,BAS,APL_Sachs_Harbor,North
2014-03-16T03:00:00Z,1394938800,2014,3,0,75.125,75.125,73.51017,-135.83747,990.25,-999.00,-999.0,yes,no,no,169312003533399,WB,BAS,APL_Sachs_Harbor,North
2014-03-16T04:00:28Z,1394942429,2014,4,0,75.167,75.167,73.51187,-135.8478,990.25,-999.00,-999.0,yes,no,no,169312003533399,WB,BAS,APL_Sachs_Harbor,North
2014-03-16T04:59:31Z,1394945971,2014,5,0,75.208,75.208,73.51385,-135.85887,990.25,-999.00,-999.0,yes,no,no,169312003533399,WB,BAS,APL_Sachs_Harbor,North
2014-03-16T06:00:00Z,1394949600,2014,6,0,75.25,75.25,73.51505,-135.86797,989.05,-999.00,-999.0,yes,no,no,169312003533399,WB,BAS,APL_Sachs_Harbor,North
2014-03-16T07:00:28Z,1394953229,2014,7,0,75.292,75.292,73.51695,-135.8771,987.72,-999.00,-999.0,yes,no,no,169312003533399,WB,BAS,APL_Sachs_Harbor,North
2014-03-16T07:59:31Z,1394956771,2014,8,0,75.333,75.333,73.51855,-135.88963,989.05,-999.00,-999.0,yes,no,no,169312003533399,WB,BAS,APL_Sachs_Harbor,North
2014-03-16T09:00:00Z,1394960400,2014,9,0,75.375,75.375,73.51963,-135.8991,989.05,-999.00,-999.0,yes,no,no,169312003533399,WB,BAS,APL_Sachs_Harbor,North
2014-03-16T10:00:28Z,1394964029,2014,10,0,75.417,75.417,73.5205,-135.91065,990.25,-999.00,-999.0,yes,no,no,169312003533399,WB,BAS,APL_Sachs_Harbor,North
2014-03-16T10:59:31Z,1394967571,2014,11,0,75.458,75.458,73.52085,-135.92027,990.25,-999.00,-999.0,yes,no,no,169312003533399,WB,BAS,APL_Sachs_Harbor,North
2014-03-16T12:00:00Z,1394971200,2014,12,0,75.5,75.5,73.5213,-135.93302,990.25,-999.00,-999.0,yes,no,no,169312003533399,WB,BAS,APL_Sachs_Harbor,North
2014-03-16T13:00:28Z,1394974829,2014,13,0,75.542,75.542,73.52138,-135.94697,992.91,-999.00,-999.0,yes,no,no,169312003533399,WB,BAS,APL_Sachs_Harbor,North
2014-03-16T13:59:31Z,1394978371,2014,14,0,75.583,75.583,73.52145,-135.96082,991.58,-999.00,-999.0,yes,no,no,169312003533399,WB,BAS,APL_Sachs_Harbor,North
2014-03-16T15:00:00Z,1394982000,2014,15,0,75.625,75.625,73.52122,-135.97773,991.58,-999.00,-999.0,yes,no,no,169312003533399,WB,BAS,APL_Sachs_Harbor,North
2014-03-16T16:00:28Z,1394985629,2014,16,0,75.667,75.667,73.52152,-135.99323,991.58,-999.00,-999.0,yes,no,no,169312003533399,WB,BAS,APL_Sachs_Harbor,North
2014-03-16T16:59:31Z,1394989171,2014,17,0,75.708,75.708,73.52183,-136.00872,989.05,-999.00,-999.0,yes,no,no,169312003533399,WB,BAS,APL_Sachs_Harbor,North
2014-03-16T18:00:00Z,1394992800,2014,18,0,75.75,75.75,73.52183,-136.02377,990.25,-999.00,-999.0,yes,no,no,169312003533399,WB,BAS,APL_Sachs_Harbor,North
2014-03-16T19:00:28Z,1394996429,2014,19,0,75.792,75.792,73.52135,-136.03995,990.25,-999.00,-999.0,yes,no,no,169312003533399,WB,BAS,APL_Sachs_Harbor,North
2014-03-16T19:59:31Z,1394999971,2014,20,0,75.833,75.833,73.52183,-136.05578,990.26,-999.00,-999.0,yes,no,no,169312003533399,WB,BAS,APL_Sachs_Harbor,North
2014-03-16T21:00:00Z,1395003600,2014,21,0,75.875,75.875,73.52125,-136.07758,983.99,-999.00,-999.0,yes,no,no,169312003533399,WB,BAS,APL_Sachs_Harbor,North
2014-03-16T22:00:28Z,1395007229,2014,22,0,75.917,75.917,73.52023,-136.09168,991.59,-999.00,-999.0,yes,no,no,169312003533399,WB,BAS,APL_Sachs_Harbor,North
2014-03-16T22:59:31Z,1395010771,2014,23,0,75.958,75.958,73.51982,-136.11448,991.59,-999.00,-999.0,yes,no,no,169312003533399,WB,BAS,APL_Sachs_Harbor,North
2014-03-17T01:00:28Z,1395018029,2014,1,0,76.042,76.042,73.51877,-136.14847,994.12,-999.00,-999.0,yes,no,no,169312003533399,WB,BAS,APL_Sachs_Harbor,North
2014-03-17T01:59:31Z,1395021571,2014,2,0,76.083,76.083,73.51665,-136.17442,996.65,-999.00,-999.0,yes,no,no,169312003533399,WB,BAS,APL_Sachs_Harbor,North
2014-03-17T03:00:00Z,1395025200,2014,3,0,76.125,76.125,73.51605,-136.19073,995.45,-999.00,-999.0,yes,no,no,169312003533399,WB,BAS,APL_Sachs_Harbor,North
2014-03-17T04:00:28Z,1395028829,2014,4,0,76.167,76.167,73.51547,-136.2134,994.12,-999.00,-999.0,yes,no,no,169312003533399,WB,BAS,APL_Sachs_Harbor,North
2014-03-17T04:59:31Z,1395032371,2014,5,0,76.208,76.208,73.51515,-136.23373,991.58,-999.00,-999.0,yes,no,no,169312003533399,WB,BAS,APL_Sachs_Harbor,North
2014-03-17T06:00:00Z,1395036000,2014,6,0,76.25,76.25,73.51505,-136.25262,996.65,-999.00,-999.0,yes,no,no,169312003533399,WB,BAS,APL_Sachs_Harbor,North
2014-03-17T07:00:28Z,1395039629,2014,7,0,76.292,76.292,73.51488,-136.2693,994.11,-999.00,-999.0,yes,no,no,169312003533399,WB,BAS,APL_Sachs_Harbor,North
2014-03-17T07:59:31Z,1395043171,2014,8,0,76.333,76.333,73.51448,-136.28728,991.58,-999.00,-999.0,yes,no,no,169312003533399,WB,BAS,APL_Sachs_Harbor,North
2014-03-17T09:00:00Z,1395046800,2014,9,0,76.375,76.375,73.51387,-136.30418,994.11,-999.00,-999.0,yes,no,no,169312003533399,WB,BAS,APL_Sachs_Harbor,North
2014-03-17T10:00:28Z,1395050429,2014,10,0,76.417,76.417,73.51278,-136.31893,995.45,-999.00,-999.0,yes,no,no,169312003533399,WB,BAS,APL_Sachs_Harbor,North
2014-03-17T10:59:31Z,1395053971,2014,11,0,76.458,76.458,73.51185,-136.33567,992.91,-999.00,-999.0,yes,no,no,169312003533399,WB,BAS,APL_Sachs_Harbor,North
2014-03-17T12:00:00Z,1395057600,2014,12,0,76.5,76.5,73.5108,-136.3519,996.65,-999.00,-999.0,yes,no,no,169312003533399,WB,BAS,APL_Sachs_Harbor,North
2014-03-17T13:00:28Z,1395061229,2014,13,0,76.542,76.542,73.50955,-136.37043,996.65,-999.00,-999.0,yes,no,no,169312003533399,WB,BAS,APL_Sachs_Harbor,North
2014-03-17T13:59:31Z,1395064771,2014,14,0,76.583,76.583,73.50893,-136.3893,995.45,-999.00,-999.0,yes,no,no,169312003533399,WB,BAS,APL_Sachs_Harbor,North
2014-03-17T15:00:00Z,1395068400,2014,15,0,76.625,76.625,73.50752,-136.4073,996.65,-999.00,-999.0,yes,no,no,169312003533399,WB,BAS,APL_Sachs_Harbor,North
2014-03-17T16:00:28Z,1395072029,2014,16,0,76.667,76.667,73.50727,-136.42537,996.65,-999.00,-999.0,yes,no,no,169312003533399,WB,BAS,APL_Sachs_Harbor,North
2014-03-17T16:59:31Z,1395075571,2014,17,0,76.708,76.708,73.50657,-136.446,994.12,-999.00,-999.0,yes,no,no,169312003533399,WB,BAS,APL_Sachs_Harbor,North
2014-03-17T18:00:00Z,1395079200,2014,18,0,76.75,76.75,73.50593,-136.46567,996.65,-999.00,-999.0,yes,no,no,169312003533399,WB,BAS,APL_Sachs_Harbor,North
2014-03-17T19:00:28Z,1395082829,2014,19,0,76.792,76.792,73.50562,-136.4853,996.65,-999.00,-999.0,yes,no,no,169312003533399,WB,BAS,APL_Sachs_Harbor,North
2014-03-17T19:59:31Z,1395086371,2014,20,0,76.833,76.833,73.50478,-136.5056,996.65,-999.00,-999.0,yes,no,no,169312003533399,WB,BAS,APL_Sachs_Harbor,North
2014-03-17T21:00:00Z,1395090000,2014,21,0,76.875,76.875,73.50422,-136.52607,997.99,-999.00,-999.0,yes,no,no,169312003533399,WB,BAS,APL_Sachs_Harbor,North
2014-03-17T22:00:28Z,1395093629,2014,22,0,76.917,76.917,73.50368,-136.54685,997.99,-999.00,-999.0,yes,no,no,169312003533399,WB,BAS,APL_Sachs_Harbor,North
2014-03-17T22:59:31Z,1395097171,2014,23,0,76.958,76.958,73.5033,-136.56903,996.65,-999.00,-999.0,yes,no,no,169312003533399,WB,BAS,APL_Sachs_Harbor,North
2014-03-18T00:00:00Z,1395100800,2014,0,0,77.0,77.0,73.50332,-136.58872,996.65,-999.00,-999.0,yes,no,no,169312003533399,WB,BAS,APL_Sachs_Harbor,North
2014-03-18T01:00:28Z,1395104429,2014,1,0,77.042,77.042,73.50335,-136.61153,995.45,-999.00,-999.0,yes,no,no,169312003533399,WB,BAS,APL_Sachs_Harbor,North
2014-03-18T01:59:31Z,1395107971,2014,2,0,77.083,77.083,73.5037,-136.63358,995.45,-999.00,-999.0,yes,no,no,169312003533399,WB,BAS,APL_Sachs_Harbor,North
2014-03-18T03:00:00Z,1395111600,2014,3,0,77.125,77.125,73.50363,-136.65488,996.65,-999.00,-999.0,yes,no,no,169312003533399,WB,BAS,APL_Sachs_Harbor,North
2014-03-18T04:00:28Z,1395115229,2014,4,0,77.167,77.167,73.50378,-136.67568,997.98,-999.00,-999.0,yes,no,no,169312003533399,WB,BAS,APL_Sachs_Harbor,North
2014-03-18T04:59:31Z,1395118771,2014,5,0,77.208,77.208,73.50418,-136.69598,1000.51,-999.00,-999.0,yes,no,no,169312003533399,WB,BAS,APL_Sachs_Harbor,North
2014-03-18T06:00:00Z,1395122400,2014,6,0,77.25,77.25,73.50425,-136.71767,997.98,-999.00,-999.0,yes,no,no,169312003533399,WB,BAS,APL_Sachs_Harbor,North
2014-03-18T07:00:28Z,1395126029,2014,7,0,77.292,77.292,73.50455,-136.73643,999.18,-999.00,-999.0,yes,no,no,169312003533399,WB,BAS,APL_Sachs_Harbor,North
2014-03-18T07:59:31Z,1395129571,2014,8,0,77.333,77.333,73.5046,-136.75658,1001.71,-999.00,-999.0,yes,no,no,169312003533399,WB,BAS,APL_Sachs_Harbor,North
2014-03-18T09:00:00Z,1395133200,2014,9,0,77.375,77.375,73.50462,-136.77357,1001.71,-999.00,-999.0,yes,no,no,169312003533399,WB,BAS,APL_Sachs_Harbor,North
2014-03-18T10:00:28Z,1395136829,2014,10,0,77.417,77.417,73.50438,-136.79248,1003.05,-999.00,-999.0,yes,no,no,169312003533399,WB,BAS,APL_Sachs_Harbor,North
2014-03-18T10:59:31Z,1395140371,2014,11,0,77.458,77.458,73.50437,-136.8115,1000.51,-999.00,-999.0,yes,no,no,169312003533399,WB,BAS,APL_Sachs_Harbor,North
2014-03-18T12:00:00Z,1395144000,2014,12,0,77.5,77.5,73.50482,-136.82978,1008.11,-999.00,-999.0,yes,no,no,169312003533399,WB,BAS,APL_Sachs_Harbor,North
2014-03-18T13:00:28Z,1395147629,2014,13,0,77.542,77.542,73.50502,-136.84987,1001.71,-999.00,-999.0,yes,no,no,169312003533399,WB,BAS,APL_Sachs_Harbor,North
2014-03-18T13:59:31Z,1395151171,2014,14,0,77.583,77.583,73.50543,-136.872,1001.71,-999.00,-999.0,yes,no,no,169312003533399,WB,BAS,APL_Sachs_Harbor,North
2014-03-18T15:00:00Z,1395154800,2014,15,0,77.625,77.625,73.50568,-136.88907,1001.71,-999.00,-999.0,yes,no,no,169312003533399,WB,BAS,APL_Sachs_Harbor,North
2014-03-18T16:00:28Z,1395158429,2014,16,0,77.667,77.667,73.50668,-136.90718,1004.38,-999.00,-999.0,yes,no,no,169312003533399,WB,BAS,APL_Sachs_Harbor,North
2014-03-18T16:59:31Z,1395161971,2014,17,0,77.708,77.708,73.5072,-136.92353,1003.05,-999.00,-999.0,yes,no,no,169312003533399,WB,BAS,APL_Sachs_Harbor,North
2014-03-18T18:00:00Z,1395165600,2014,18,0,77.75,77.75,73.50755,-136.94087,1001.72,-999.00,-999.0,yes,no,no,169312003533399,WB,BAS,APL_Sachs_Harbor,North
2014-03-18T19:00:28Z,1395169229,2014,19,0,77.792,77.792,73.50818,-136.95722,1003.06,-999.00,-999.0,yes,no,no,169312003533399,WB,BAS,APL_Sachs_Harbor,North
2014-03-18T19:59:31Z,1395172771,2014,20,0,77.833,77.833,73.50843,-136.97447,1001.73,-999.00,-999.0,yes,no,no,169312003533399,WB,BAS,APL_Sachs_Harbor,North
2014-03-18T21:00:00Z,1395176400,2014,21,0,77.875,77.875,73.50865,-136.99112,1005.59,-999.00,-999.0,yes,no,no,169312003533399,WB,BAS,APL_Sachs_Harbor,North
2014-03-18T22:00:28Z,1395180029,2014,22,0,77.917,77.917,73.50912,-137.00968,1005.59,-999.00,-999.0,yes,no,no,169312003533399,WB,BAS,APL_Sachs_Harbor,North
2014-03-18T22:59:31Z,1395183571,2014,23,0,77.958,77.958,73.51007,-137.03188,1006.92,-999.00,-999.0,yes,no,no,169312003533399,WB,BAS,APL_Sachs_Harbor,North
2014-03-19T00:00:00Z,1395187200,2014,0,0,78.0,78.0,73.51052,-137.04788,1004.39,-999.00,-999.0,yes,no,no,169312003533399,WB,BAS,APL_Sachs_Harbor,North
2014-03-19T01:00:28Z,1395190829,2014,1,0,78.042,78.042,73.51247,-137.0659,1006.92,-999.00,-999.0,yes,no,no,169312003533399,WB,BAS,APL_Sachs_Harbor,North
2014-03-19T01:59:31Z,1395194371,2014,2,0,78.083,78.083,73.51313,-137.08133,1006.92,-999.00,-999.0,yes,no,no,169312003533399,WB,BAS,APL_Sachs_Harbor,North
2014-03-19T03:00:00Z,1395198000,2014,3,0,78.125,78.125,73.51395,-137.0952,1005.58,-999.00,-999.0,yes,no,no,169312003533399,WB,BAS,APL_Sachs_Harbor,North
2014-03-19T04:00:28Z,1395201629,2014,4,0,78.167,78.167,73.51537,-137.1093,1008.12,-999.00,-999.0,yes,no,no,169312003533399,WB,BAS,APL_Sachs_Harbor,North
2014-03-19T04:59:31Z,1395205171,2014,5,0,78.208,78.208,73.5161,-137.12008,1008.11,-999.00,-999.0,yes,no,no,169312003533399,WB,BAS,APL_Sachs_Harbor,North
2014-03-19T06:00:00Z,1395208800,2014,6,0,78.25,78.25,73.51677,-137.13125,1010.65,-999.00,-999.0,yes,no,no,169312003533399,WB,BAS,APL_Sachs_Harbor,North
2014-03-19T07:00:28Z,1395212429,2014,7,0,78.292,78.292,73.51748,-137.14217,1010.65,-999.00,-999.0,yes,no,no,169312003533399,WB,BAS,APL_Sachs_Harbor,North
2014-03-19T07:59:31Z,1395215971,2014,8,0,78.333,78.333,73.51807,-137.15335,1009.45,-999.00,-999.0,yes,no,no,169312003533399,WB,BAS,APL_Sachs_Harbor,North
2014-03-19T09:00:00Z,1395219600,2014,9,0,78.375,78.375,73.51877,-137.16348,1009.45,-999.00,-999.0,yes,no,no,169312003533399,WB,BAS,APL_Sachs_Harbor,North
2014-03-19T10:00:28Z,1395223229,2014,10,0,78.417,78.417,73.5194,-137.17287,1008.11,-999.00,-999.0,yes,no,no,169312003533399,WB,BAS,APL_Sachs_Harbor,North
2014-03-19T10:59:31Z,1395226771,2014,11,0,78.458,78.458,73.52,-137.18192,1009.45,-999.00,-999.0,yes,no,no,169312003533399,WB,BAS,APL_Sachs_Harbor,North
2014-03-19T12:00:00Z,1395230400,2014,12,0,78.5,78.5,73.52067,-137.18913,1011.98,-999.00,-999.0,yes,no,no,169312003533399,WB,BAS,APL_Sachs_Harbor,North
2014-03-19T13:00:28Z,1395234029,2014,13,0,78.542,78.542,73.52112,-137.1974,1011.98,-999.00,-999.0,yes,no,no,169312003533399,WB,BAS,APL_Sachs_Harbor,North
2014-03-19T13:59:31Z,1395237571,2014,14,0,78.583,78.583,73.52155,-137.20468,1013.31,-999.00,-999.0,yes,no,no,169312003533399,WB,BAS,APL_Sachs_Harbor,North
2014-03-19T15:00:00Z,1395241200,2014,15,0,78.625,78.625,73.52192,-137.21102,1017.05,-999.00,-999.0,yes,no,no,169312003533399,WB,BAS,APL_Sachs_Harbor,North
2014-03-19T16:00:28Z,1395244829,2014,16,0,78.667,78.667,73.52237,-137.21582,1015.85,-999.00,-999.0,yes,no,no,169312003533399,WB,BAS,APL_Sachs_Harbor,North